Regional Weather Roundup
Issued by NWS

Home | Current Version | Previous Version | Graphics & Text | Print | Product List | Glossary On
Versions: 1 2 3 4 5 6 7 8 9 10 11 12 13 14 15 16 17 18 19 20 21 22 23 24 25 26 27 28 29 30 31 32 33 34 35 36 37 38 39 40 41 42 43 44 45 46 47 48 49 50
000
ASUS43 KOAX 210502
RWRNE

WEATHER ROUNDUP FOR NEBRASKA
NATIONAL WEATHER SERVICE OMAHA NE
1100 PM CST THU NOV 20 2014

NOTES: SATELLITE DATA IS BEING USED TO AUGMENT CLOUD COVER ABOVE
       12000 FEET.
       "FAIR" INDICATES FEW OR NO CLOUDS BELOW 12,000 FEET WITH NO
       SIGNIFICANT WEATHER AND/OR OBSTRUCTIONS TO VISIBILITY.

  * THESE STATIONS DO NOT REPORT WEATHER SUCH AS RAIN...SNOW OR FOG.

NEZ001>004-019>022-054>056-210600-
NEBRASKA PANHANDLE

CITY           SKY/WX    TMP DP  RH WIND       PRES   REMARKS
SCOTTSBLUFF    PTCLDY    26  18  71 NE6       29.94S WCI  19
ALLIANCE       PTCLDY    26  19  74 S3        29.94R
CHADRON        PTCLDY    22  18  85 W5        29.91F WCI  16
KIMBALL        CLOUDY    32  18  55 SW3       29.95F
SIDNEY         MOCLDY    24  15  68 CALM      29.99S
$$

NEZ057>060-069>072-079>082-210600-
SOUTHWEST NEBRASKA

CITY           SKY/WX    TMP DP  RH WIND       PRES   REMARKS
NORTH PLATTE   CLEAR     19  15  84 E5        30.06R WCI  12
IMPERIAL       PTCLDY    26  18  71 S9        30.04R WCI  17
LEXINGTON      CLEAR     26  19  75 SE8       30.11R WCI  17
MCCOOK         CLEAR     24  17  74 SE7       30.08S WCI  16
OGALLALA       PTCLDY    30  22  70 CALM      30.03S
$$

NEZ005>010-023>029-035>040-094-210600-
NORTH CENTRAL NEBRASKA

CITY           SKY/WX    TMP DP  RH WIND       PRES   REMARKS
VALENTINE      CLEAR     27  20  75 S13       29.99F WCI  16
AINSWORTH      CLEAR     27  20  76 S15       30.01F WCI  15
BROKEN BOW     PTCLDY    19  15  84 S6        30.08F WCI  11
O`NEILL        PTCLDY    18  17  93 S8        30.10S WCI   8
ORD            PTCLDY    20  17  88 S6        30.12S WCI  12
THEDFORD       CLEAR     29  22  75 S13       30.03S WCI  19
$$

NEZ041-046>049-061>064-073>077-083>087-210600-
SOUTH CENTRAL NEBRASKA

CITY           SKY/WX    TMP DP  RH WIND       PRES   REMARKS
GRAND ISLAND   CLEAR     23  17  78 SE10      30.16S WCI  12
AURORA         PTCLDY    20  17  88 SE8       30.16S WCI  10
HASTINGS       PTCLDY    23  17  78 SE10      30.14S WCI  12
HEBRON         PTCLDY    23  17  78 SE5       30.20R WCI  17
HOLDREGE       CLEAR     22  16  78 SE6       30.11S WCI  14
KEARNEY *      PTCLDY    18  14  86 CALM      30.14S
YORK           PTCLDY    23  18  80 SE9       30.18S WCI  13
$$

NEZ011>018-030>034-042>045-210600-
NORTHEAST NEBRASKA

CITY           SKY/WX    TMP DP  RH WIND       PRES   REMARKS
NORFOLK        PTCLDY    18  14  84 SE8       30.17S WCI   8
ALBION         PTCLDY    17  13  86 S5        30.16S WCI  10
BLAIR          PTCLDY    19  15  84 SE5       30.23R WCI  12
COLUMBUS *     PTCLDY    16   9  73 SE5       30.20S WCI   9
FREMONT        PTCLDY    21  16  83 SE3       30.23S
TEKAMAH        PTCLDY    11   6  81 S7        30.25S WCI   0
WAYNE          PTCLDY    16  13  88 S6        30.20S WCI   7
$$

NEZ050>053-065>068-078-088>093-210600-
SOUTHEAST NEBRASKA

CITY           SKY/WX    TMP DP  RH WIND       PRES   REMARKS
LINCOLN        PTCLDY    22  16  78 SE7       30.25R WCI  13
OMAHA EPPLEY   PTCLDY    19  13  77 SE7       30.27S WCI  10
BEATRICE       PTCLDY    23  18  81 SE5       30.22S WCI  16
FALLS CITY     PTCLDY    20  16  84 E6        30.26S WCI  12
NEBRASKA CITY  PTCLDY    21  15  76 SE5       30.26R WCI  15
PLATTSMOUTH    PTCLDY    19  14  81 SE7       30.25R WCI  10
$$

NEZ044-045-051>053-067-210600-
OMAHA AREA

CITY           SKY/WX    TMP DP  RH WIND       PRES   REMARKS
OMAHA EPPLEY   PTCLDY    19  13  77 SE7       30.27S WCI  10
BLAIR          PTCLDY    19  15  84 SE5       30.23R WCI  12
FREMONT        PTCLDY    21  16  83 SE3       30.23S
MILLARD        PTCLDY    20  16  84 SE3       30.25S
OFFUTT AFB     PTCLDY    17  13  84 E5        30.26R WCI  10
PLATTSMOUTH    PTCLDY    19  14  81 SE7       30.25R WCI  10
WAHOO          FAIR      16  12  84 SE7       30.23S WCI   6
$$


USA.gov is the U.S. government's official web portal to all federal, state and local government web resources and services.